{"data":{"norad_id":49102,"intl_designator":"2021-075AD","name":"ONEWEB-0316","alt_names":[],"object_type":"PAYLOAD","status":"ACTIVE","operator":null,"country":"UK","launch_date":"2021-08-21","launch_site_code":"TYMSC","launch_vehicle":null,"mission":null,"orbit_class":"UNKNOWN","rcs_meters":null,"size_class":null,"mass_kg":null,"dimensions":null,"purposes":["comms"],"wikipedia_slug":null,"has_3d_model":false,"image_url":null,"decayed_at":null,"tle_current":{"epoch":"2026-05-25T02:12:59.781312Z","epoch_age_seconds":73979,"freshness":"FRESH","line1":"1 49102U 21075AD  26145.09235858  .00000077  00000+0  16321-3 0  9998","line2":"2 49102  87.9160 340.0539 0001890  89.9661 270.1687 13.18685584234166","mean_motion":13.18685584,"eccentricity":0.000189,"inclination_deg":87.916,"raan_deg":340.0539,"arg_perigee_deg":89.9661,"mean_anomaly_deg":270.1687,"bstar":0.00016321,"rev_number":23416,"period_min":109.1996467901,"perigee_km":1188.3143888262,"apogee_km":1191.1750481158,"semimajor_km":7567.881718471,"source":"CELESTRAK","updated_at":"2026-05-25T13:38:22.486721Z"}}}